This is the latest recevied weather packets stored in our database for station/object YO8PIC-4. If no packets are shown the sender has not sent any weather packets the latest 1 day(s).
| Time | Temp. | Humidity | Pressure | Rain* | Wind** | Luminosity | Snow |
|---|---|---|---|---|---|---|---|
| 1778057569 | 27.22° C | 43% | 1010.9 hPa | - | - | - | - |
| 1778056363 | 26.67° C | 36% | 1010.9 hPa | - | - | - | - |
| 1778055763 | 27.22° C | 41% | 1010.9 hPa | - | - | - | - |
| 1778053362 | 27.22° C | 40% | 1010.3 hPa | - | - | - | - |
| 1778052758 | 26.67° C | 45% | 1011.1 hPa | - | - | - | - |
| 1778052158 | 27.22° C | 46% | 1011.1 hPa | - | - | - | - |
| 1778050957 | 26.67° C | 47% | 1011.2 hPa | - | - | - | - |
| 1778050357 | 27.22° C | 45% | 1011.2 hPa | - | - | - | - |
| 1778049757 | 26.11° C | 45% | 1011.3 hPa | - | - | - | - |
| 1778049157 | 26.11° C | 45% | 1011.3 hPa | - | - | - | - |
| 1778048557 | 27.22° C | 41% | 1011.2 hPa | - | - | - | - |
| 1778047956 | 26.67° C | 43% | 1010.8 hPa | - | - | - | - |
| 1778046750 | 26.11° C | 46% | 1011.5 hPa | - | - | - | - |
| 1778046150 | 26.11° C | 44% | 1011.4 hPa | - | - | - | - |
| 1778045550 | 26.11° C | 48% | 1011.5 hPa | - | - | - | - |
| 1778044950 | 26.11° C | 49% | 1011.4 hPa | - | - | - | - |
| 1778043749 | 26.67° C | 48% | 1011.3 hPa | - | - | - | - |
| 1778043149 | 26.67° C | 47% | 1011.4 hPa | - | - | - | - |
| 1778042549 | 26.67° C | 46% | 1011.4 hPa | - | - | - | - |
| 1778041949 | 26.67° C | 46% | 1011.4 hPa | - | - | - | - |
| 1778041349 | 26.67° C | 46% | 1011.4 hPa | - | - | - | - |
| 1778040749 | 22.78° C | 46% | 1011.4 hPa | - | - | - | - |
| 1778040185 | 22.78° C | 48% | 1011.4 hPa | - | - | - | - |
| 1778039548 | 23.89° C | 57% | 1011.4 hPa | - | - | - | - |
| 1778038948 | 23.89° C | 57% | 1011.3 hPa | - | - | - | - |
* Rain since midnight (hover to see other rain measurements)
** Current wind speed in m/s (hover to see current wind gust speed)